Hourly Weather Chişinău

Today, 29 November, Sunday

Time Temperature Precipitation Wind Pressure Humidity
00:00 +3°C° 0 mm 1 mps 755 mmHg 87%
01:00 +3°C° 0 mm 1 mps 755 mmHg 88%
02:00 +3°C° 0 mm 1 mps 755 mmHg 91%
03:00 +3°C° 0.1 mm 1 mps 755 mmHg 93%
04:00 +2°C° 0.1 mm 1 mps 755 mmHg 94%
05:00 +2°C° 0.1 mm 1 mps 755 mmHg 95%
06:00 +2°C° 0.1 mm 1 mps 755 mmHg 96%
07:00 +2°C° 0.1 mm 1 mps 755 mmHg 96%
08:00 +3°C° 0.1 mm 1 mps 756 mmHg 97%
09:00 +3°C° 0 mm 1 mps 756 mmHg 96%
10:00 +3°C° 0 mm 1 mps 756 mmHg 95%
11:00 +2°C° 0 mm 0 mps 756 mmHg 94%
12:00 +3°C° 0 mm 1 mps 756 mmHg 90%
13:00 +4°C° 0 mm 1 mps 756 mmHg 86%
14:00 +4°C° 0 mm 1 mps 756 mmHg 82%
15:00 +4°C° 0 mm 1 mps 756 mmHg 82%
16:00 +4°C° 0 mm 1 mps 756 mmHg 83%
17:00 +3°C° 0 mm 1 mps 756 mmHg 83%
18:00 +3°C° 0 mm 1 mps 756 mmHg 83%
19:00 +3°C° 0 mm 1 mps 757 mmHg 84%
20:00 +2°C° 0 mm 1 mps 757 mmHg 84%
21:00 +2°C° 0 mm 1 mps 757 mmHg 84%
22:00 +2°C° 0 mm 1 mps 757 mmHg 84%
23:00 +2°C° 0 mm 1 mps 757 mmHg 84%

Tomorrow, 30 November, Monday

Time Temperature Precipitation Wind Pressure Humidity
00:00 +2°C° 0 mm 1 mps 757 mmHg 84%
01:00 +2°C° 0 mm 1 mps 757 mmHg 83%
02:00 +1°C° 0 mm 2 mps 757 mmHg 82%
03:00 +1°C° 0 mm 2 mps 757 mmHg 82%
04:00 +1°C° 0 mm 2 mps 757 mmHg 81%
05:00 +1°C° 0 mm 2 mps 757 mmHg 81%
06:00 +1°C° 0.1 mm 2 mps 758 mmHg 82%
07:00 +1°C° 0.1 mm 2 mps 758 mmHg 84%
08:00 0°C° 0.1 mm 3 mps 758 mmHg 86%
09:00 0°C° 0.2 mm 3 mps 758 mmHg 85%
10:00 0°C° 0.2 mm 3 mps 758 mmHg 84%
11:00 0°C° 0.2 mm 4 mps 759 mmHg 83%
12:00 0°C° 0.3 mm 4 mps 759 mmHg 83%
13:00 0°C° 0.3 mm 4 mps 759 mmHg 83%
14:00 0°C° 0.3 mm 5 mps 759 mmHg 84%
15:00 0°C° 0.2 mm 5 mps 759 mmHg 85%
16:00 -1°C° 0.2 mm 5 mps 759 mmHg 86%
17:00 -1°C° 0.2 mm 5 mps 759 mmHg 87%
18:00 -1°C° 0.2 mm 5 mps 759 mmHg 86%
19:00 -1°C° 0.2 mm 5 mps 759 mmHg 84%
20:00 -1°C° 0.2 mm 5 mps 760 mmHg 83%
21:00 -1°C° 0 mm 4 mps 760 mmHg 82%
22:00 -1°C° 0 mm 4 mps 760 mmHg 81%
23:00 -1°C° 0 mm 4 mps 760 mmHg 80%

Day after tomorrow, 1 December, Tuesday

Time Temperature Precipitation Wind Pressure Humidity
00:00 -1°C° 0 mm 4 mps 760 mmHg 80%
01:00 -1°C° 0 mm 5 mps 760 mmHg 79%
02:00 -2°C° 0 mm 5 mps 760 mmHg 79%
03:00 -2°C° 0 mm 5 mps 760 mmHg 81%
04:00 -2°C° 0 mm 5 mps 759 mmHg 82%
05:00 -2°C° 0 mm 5 mps 759 mmHg 84%
06:00 -4°C° 0.1 mm 5 mps 759 mmHg 87%
07:00 -4°C° 0.1 mm 5 mps 759 mmHg 89%
08:00 -4°C° 0.1 mm 5 mps 760 mmHg 92%
09:00 -4°C° 0.2 mm 5 mps 759 mmHg 92%
10:00 -2°C° 0.2 mm 5 mps 759 mmHg 92%
11:00 -2°C° 0.2 mm 5 mps 759 mmHg 93%
12:00 -2°C° 0.1 mm 5 mps 759 mmHg 93%
13:00 -1°C° 0.1 mm 5 mps 759 mmHg 94%
14:00 -1°C° 0.1 mm 4 mps 759 mmHg 95%
15:00 -1°C° 0.1 mm 4 mps 759 mmHg 96%
16:00 -1°C° 0.1 mm 4 mps 759 mmHg 96%
17:00 0°C° 0.1 mm 3 mps 758 mmHg 97%
18:00 0°C° 0.1 mm 3 mps 759 mmHg 97%
19:00 +1°C° 0.1 mm 3 mps 759 mmHg 97%
20:00 +2°C° 0.1 mm 2 mps 759 mmHg 98%
21:00 +2°C° 0.1 mm 2 mps 759 mmHg 98%
22:00 +2°C° 0.1 mm 2 mps 759 mmHg 98%
23:00 +2°C° 0.1 mm 2 mps 759 mmHg 98%

2 December, Wednesday

Time Temperature Precipitation Wind Pressure Humidity
00:00 +2°C° 0.1 mm 2 mps 759 mmHg 98%
01:00 +2°C° 0.1 mm 2 mps 759 mmHg 98%
02:00 +2°C° 0.1 mm 2 mps 759 mmHg 98%
03:00 +2°C° 0 mm 2 mps 758 mmHg 98%
04:00 +2°C° 0 mm 2 mps 758 mmHg 98%
05:00 +2°C° 0 mm 2 mps 758 mmHg 98%
06:00 +3°C° 0 mm 1 mps 758 mmHg 98%
07:00 +3°C° 0 mm 1 mps 758 mmHg 98%
08:00 +3°C° 0 mm 1 mps 758 mmHg 98%
09:00 +3°C° 0.1 mm 1 mps 758 mmHg 98%
10:00 +3°C° 0.1 mm 1 mps 758 mmHg 97%
11:00 +3°C° 0.1 mm 1 mps 759 mmHg 97%
12:00 +3°C° 0.1 mm 1 mps 758 mmHg 97%
13:00 +3°C° 0.1 mm 1 mps 758 mmHg 97%
14:00 +3°C° 0.1 mm 1 mps 757 mmHg 97%
15:00 +3°C° 0 mm 1 mps 757 mmHg 97%
16:00 +3°C° 0 mm 1 mps 758 mmHg 97%
17:00 +3°C° 0 mm 1 mps 758 mmHg 98%
18:00 +3°C° 0 mm 1 mps 758 mmHg 97%
19:00 +3°C° 0 mm 1 mps 758 mmHg 97%
20:00 +3°C° 0 mm 1 mps 758 mmHg 97%
21:00 +3°C° 0 mm 1 mps 758 mmHg 97%
22:00 +3°C° 0 mm 1 mps 758 mmHg 96%
23:00 +3°C° 0 mm 1 mps 758 mmHg 95%

3 December, Thursday

Time Temperature Precipitation Wind Pressure Humidity
00:00 +3°C° 0 mm 1 mps 758 mmHg 94%
01:00 +3°C° 0 mm 1 mps 758 mmHg 94%
02:00 +3°C° 0 mm 1 mps 758 mmHg 93%
03:00 +3°C° 0 mm 1 mps 758 mmHg 92%
04:00 +3°C° 0 mm 1 mps 757 mmHg 92%
05:00 +3°C° 0 mm 1 mps 757 mmHg 91%
06:00 +2°C° 0 mm 1 mps 757 mmHg 91%
07:00 +2°C° 0 mm 1 mps 757 mmHg 90%
08:00 +2°C° 0 mm 1 mps 758 mmHg 90%
09:00 +3°C° 0 mm 1 mps 758 mmHg 87%
10:00 +3°C° 0 mm 1 mps 758 mmHg 84%
11:00 +4°C° 0 mm 1 mps 758 mmHg 81%
12:00 +4°C° 0 mm 1 mps 758 mmHg 79%
13:00 +5°C° 0 mm 1 mps 757 mmHg 77%
14:00 +5°C° 0 mm 1 mps 757 mmHg 75%
15:00 +4°C° 0 mm 1 mps 757 mmHg 77%
16:00 +3°C° 0 mm 2 mps 757 mmHg 80%
17:00 +2°C° 0 mm 2 mps 757 mmHg 82%
18:00 +2°C° 0 mm 2 mps 757 mmHg 82%
19:00 +2°C° 0 mm 2 mps 757 mmHg 82%
20:00 +2°C° 0 mm 2 mps 757 mmHg 82%
21:00 +3°C° 0 mm 2 mps 757 mmHg 82%
22:00 +3°C° 0 mm 2 mps 757 mmHg 82%
23:00 +2°C° 0 mm 3 mps 757 mmHg 82%

4 December, Friday

Time Temperature Precipitation Wind Pressure Humidity
00:00 +2°C° 0 mm 3 mps 757 mmHg 84%
01:00 +3°C° 0 mm 4 mps 757 mmHg 86%
02:00 +3°C° 0 mm 4 mps 756 mmHg 87%
03:00 +3°C° 0 mm 4 mps 756 mmHg 89%
04:00 +3°C° 0 mm 4 mps 756 mmHg 90%
05:00 +2°C° 0 mm 5 mps 756 mmHg 91%
06:00 +3°C° 0 mm 5 mps 756 mmHg 91%
07:00 +3°C° 0 mm 6 mps 756 mmHg 90%
08:00 +3°C° 0 mm 6 mps 756 mmHg 89%
09:00 +4°C° 0 mm 6 mps 756 mmHg 87%
10:00 +4°C° 0 mm 6 mps 756 mmHg 85%
11:00 +5°C° 0 mm 6 mps 756 mmHg 83%
12:00 +5°C° 0 mm 6 mps 755 mmHg 83%
13:00 +5°C° 0 mm 6 mps 755 mmHg 83%
14:00 +6°C° 0 mm 7 mps 754 mmHg 83%
15:00 +5°C° 0 mm 7 mps 754 mmHg 86%
16:00 +5°C° 0 mm 7 mps 754 mmHg 88%
17:00 +5°C° 0 mm 7 mps 754 mmHg 90%
18:00 +5°C° 0 mm 7 mps 754 mmHg 90%
19:00 +5°C° 0 mm 7 mps 754 mmHg 90%
20:00 +5°C° 0 mm 7 mps 754 mmHg 90%
21:00 +5°C° 0.2 mm 7 mps 754 mmHg 91%
22:00 +5°C° 0.2 mm 7 mps 753 mmHg 92%
23:00 +5°C° 0.2 mm 7 mps 753 mmHg 93%
Show more